Flag for Falkland Islands Weather past 2 weeks in Stanley, Falkland Islands

Now
39 °F

Drizzle. Low clouds.


Feels Like: 31 °F
Forecast: 39 / 43 °F
Wind: 15 mph from West

Location: Mount Pleasant Airport

Current Time: Aug 1, 2014 at 7:32:17 AM

Latest Report: Aug 1, 2014 at 6:50 AM


Visibility: 2 mi

Pressure: 29.47 "Hg

Humidity: 93%

Dew point: 37 °F

Location of StanleyLocation

Historic Weather in Stanley — Graph

°F

Stanley temperature yesterday

Maximum temperature yesterday: 43 °F (at 1:50 PM)
Minimum temperature yesterday: 39 °F (at 12:50 AM)
Average temperature yesterday: 41 °F

Past Weeks' High & Low Weather Summary

 TemperatureHumidityPressure
High45 °F (Jul 30, 12:50 PM)100% (Jul 18, 6:50 AM)30.18 "Hg (Jul 18, 6:50 AM)
Low21 °F (Jul 26, 8:50 PM)61% (Jul 30, 12:50 PM)29.27 "Hg (Jul 24, 2:50 AM)
Average35 °F88%29.69 "Hg
* Reported Jul 17 5:50 AM — Aug 1 5:50 AM, Stanley, Weather by CustomWeather, © 2014

Note: Actual official high and low records may vary slightly from our data, if they occured in-between our weather recording intervals... More about our weather records

Advertising

Stanley weather history for previous 24 hours

 ConditionsComfort  
Time TempWeatherWind HumidityBarometerVisibility
5:50 AM
Aug 1
39 °FPassing clouds.16 mph100%29.45 "HgN/A
4:50 AM39 °FPartly cloudy.16 mph93%29.45 "Hg2 mi
3:50 AM39 °FPassing clouds.16 mph93%29.42 "HgN/A
2:50 AM39 °FLow clouds.18 mph93%29.42 "Hg6 mi
1:50 AM41 °FLow clouds.18 mph87%29.39 "Hg6 mi
12:50 AM41 °FLow clouds.17 mph93%29.36 "Hg6 mi
11:50 PM
Jul 31
39 °FPassing clouds.18 mph100%29.33 "HgN/A
10:50 PM41 °FPassing clouds.17 mph93%29.33 "HgN/A
9:50 PM39 °FPassing clouds.12 mph93%29.30 "HgN/A
8:50 PM43 °FPartly cloudy.16 mph93%29.30 "HgN/A
7:50 PM43 °FPartly cloudy.28 mph93%29.27 "HgN/A
6:50 PM43 °FPartly cloudy.15 mph93%29.30 "HgN/A
5:50 PM43 °FBroken clouds.26 mph93%29.27 "Hg5 mi
4:50 PM43 °FPartly sunny.26 mph93%29.30 "HgN/A
3:50 PM43 °FDrizzle. Partly sunny.24 mph93%29.30 "Hg5 mi
2:50 PM43 °FDrizzle. Partly sunny.31 mph100%29.30 "Hg3 mi
1:50 PM43 °FDrizzle. More clouds than sun.33 mph93%29.33 "Hg1 mi
12:50 PM41 °FDrizzle. Mostly cloudy.38 mph100%29.33 "Hg1 mi
11:50 AM41 °FDrizzle. Partly sunny.26 mph100%29.42 "Hg1 mi
10:50 AM41 °FDrizzle. Partly sunny.35 mph100%29.39 "Hg1 mi
9:50 AM41 °FLight rain. Mostly cloudy.40 mph93%29.36 "Hg4 mi
8:50 AM41 °FMostly cloudy.37 mph93%29.39 "HgN/A
7:50 AM41 °FMostly cloudy.39 mph93%29.39 "HgN/A
Weather by CustomWeather, © 2014

See weather overviewHow to use our weather pages